World > North America > United States > Nevada > Middlegate  

Middlegate, NV Hourly Weather Updates

Feedback E-mail the Weather

Quick Clicks

Middlegate, NV Weather Maps

°F °C°F °C
Middlegate Weather Map
UTC Time: 4/13/2024, 00:11
Your Time:

Middlegate, NV Regional Weather

Expires:202404130100;;641835
ASUS45 KREV 130010
RWRNV 
NEVADA REGIONAL WEATHER ROUNDUP
NATIONAL WEATHER SERVICE RENO NV
500 PM PDT FRI APR 12 2024

NOTE: "FAIR" INDICATES FEW OR NO CLOUDS BELOW 12,000 FEET WITH NO
SIGNIFICANT WEATHER AND/OR OBSTRUCTIONS TO VISIBILITY.


NVZ001-003-004-130100-
WESTERN NEVADA
  
CITY           SKY/WX    TMP DP  RH WIND       PRES   REMARKS
RENO           PTSUNNY   69  28  21 SW30G39   29.72R TC  21           
6HR MIN TEMP:  69; 6HR MAX TEMP:  74;                                

CARSON CITY    FAIR      61  32  33 SW23G33   29.77R TC  16           
MINDEN         FAIR      63  28  27 SW30G51   29.76S TC  17           
SLIDE MTN        N/A     36  30  80 W31         N/A  TC   2           
PYRAMID LAKE     N/A     73 N/A N/A S13         N/A  TC  23           
FALLON         PTSUNNY   75  27  17 SW28G36   29.66R TC  24           
6HR MIN TEMP:  70; 6HR MAX TEMP:  79;                                

LOVELOCK       PTSUNNY   75  25  15 SW26G39   29.64R TC  24           
6HR MIN TEMP:  68; 6HR MAX TEMP:  78; 6HR PCP: TRACE;                

HAWTHORNE      SUNNY     73  23  15 SW24G38   29.71R TC  23           
$$


SKY/WX - Weather  TMP - Temperature  DP - Dew Point  RH - Humidity
WIND - Wind Direction/Speed PRES - Barometric Pressure VSB - Visibility
WCI - Wind Chill Index E13G22 Wind - East Wind 13 mph/Gusts of 22 mph

Trending Headlines

Trending Entertainment Headlines

Middlegate Radar Loop

Use the map search tool if you want to place a location marker on the radar map...

Middlegate Quick Facts

National Two Day Weather Forecast


E-mail the Middlegate Weather Forecast

Voice your opinion or tell us about page issues...